Date String (YYYY-MM-DD hh:mm:ss) UTC,Instrument flags,absolute air pressure of the measurement (hPa),sample flow rate (lpm),inlet stack bypass flow (lpm),air temperature of the measurement (°C),ambient temperature measured by the external sensor (°C),aerosol sample conditioner tube jacket temperature (°C),OPC LED temperature (°C),internal box temperature (°C),relative humidity of the measurement (%),span deviation,mass concentration of particles derived from Lorenz-Mie calculation of OPC scattering (μg/m³),mass concentration of particles derived from Lorenz-Mie calculation of OPC scattering (μg/m³),mass concentration of particles derived from Lorenz-Mie calculation of OPC scattering (μg/m³)
DateTimeUTC,F1_M11,P_M11,Q1_M11,Q2_M11,T1_M11,T2_M11,T3_M11,T4_M11,T5_M11,U1_M11,ZSPAN_M11,X2_M11,X0_M11,X1_M11
2023-10-02 13:00:00,SystemResetWarning,0829.4,5.00,000.00,027.6,026.2,000.0,036.1,029.2,19.2,0000.0,0004.40,0010.32,0003.64
2023-10-02 13:01:00,SystemResetWarning,0829.4,4.99,000.00,027.6,026.1,000.0,036.1,029.2,19.3,0000.0,0004.43,0010.06,0003.63
2023-10-02 13:02:00,SystemResetWarning,0829.4,4.99,000.00,027.6,026.1,000.0,036.1,029.2,19.3,0000.0,0004.44,0009.85,0003.62
2023-10-02 13:03:00,SystemResetWarning,0829.4,5.00,000.00,027.6,026.1,000.0,036.1,029.2,19.5,0000.0,0004.44,0009.88,0003.61
2023-10-02 13:04:00,SystemResetWarning,0829.4,5.01,000.00,027.5,026.1,000.0,036.1,029.2,19.5,0000.0,0004.45,0009.84,0003.62
2023-10-02 13:05:00,SystemResetWarning,0829.5,5.01,000.00,027.5,026.1,000.0,036.1,029.2,19.6,0000.0,0004.46,0009.57,0003.62
2023-10-02 13:06:00,SystemResetWarning,0829.5,5.00,000.00,027.5,026.1,000.0,036.1,029.2,19.8,0000.0,0004.45,0009.38,0003.62
2023-10-02 13:07:00,SystemResetWarning,0829.5,4.99,000.00,027.5,026.1,000.0,036.0,029.2,19.9,0000.0,0004.47,0009.15,0003.62
2023-10-02 13:08:00,SystemResetWarning,0829.6,4.99,000.00,027.5,026.1,000.0,036.0,029.2,19.8,0000.0,0004.45,0008.81,0003.61
2023-10-02 13:09:00,SystemResetWarning,0829.7,4.99,000.00,027.5,026.1,000.0,036.0,029.2,19.7,0000.0,0004.44,0008.53,0003.62
2023-10-02 13:10:00,SystemResetWarning,0829.7,5.00,000.00,027.5,026.1,000.0,036.0,029.2,19.8,0000.0,0004.45,0008.58,0003.62
2023-10-02 13:11:00,SystemResetWarning,0829.7,5.01,000.00,027.5,026.1,000.0,036.0,029.1,19.8,0000.0,0004.47,0009.57,0003.63
2023-10-02 13:12:00,SystemResetWarning,0829.7,5.01,000.00,027.5,026.1,000.0,036.0,029.1,19.8,0000.0,0004.42,0009.58,0003.65
2023-10-02 13:13:00,SystemResetWarning,0829.8,5.00,000.00,027.5,026.0,000.0,036.0,029.1,19.9,0000.0,0004.40,0009.53,0003.67
2023-10-02 13:14:00,SystemResetWarning,0829.8,5.00,000.00,027.5,026.0,000.0,036.0,029.1,20.1,0000.0,0004.39,0009.59,0003.68
2023-10-02 13:15:00,SystemResetWarning,0829.8,5.00,000.00,027.5,026.0,000.0,036.0,029.1,20.0,0000.0,0004.41,0009.57,0003.69
2023-10-02 13:16:00,SystemResetWarning,0829.9,5.00,000.00,027.5,026.0,000.0,036.0,029.1,20.1,0000.0,0004.42,0009.82,0003.69
2023-10-02 13:17:00,SystemResetWarning,0829.9,5.00,000.00,027.4,026.0,000.0,036.0,029.1,20.1,0000.0,0004.43,0009.97,0003.70
2023-10-02 13:18:00,SystemResetWarning,0830.0,5.00,000.00,027.4,026.0,000.0,036.0,029.1,20.2,0000.0,0004.45,0010.12,0003.69
2023-10-02 13:19:00,SystemResetWarning,0830.0,5.00,000.00,027.4,026.0,000.0,036.0,029.1,20.3,0000.0,0004.49,0010.32,0003.70
2023-10-02 13:20:00,SystemResetWarning,0830.0,5.00,000.00,027.4,026.0,000.0,036.0,029.1,20.4,0000.0,0004.51,0010.71,0003.71
2023-10-02 13:21:00,SystemResetWarning,0830.0,5.00,000.00,027.4,026.0,000.0,036.0,029.1,20.3,0000.0,0004.52,0010.65,0003.71
2023-10-02 13:22:00,SystemResetWarning,0830.0,4.99,000.00,027.4,026.0,000.0,036.0,029.1,20.2,0000.0,0004.56,0009.89,0003.72
2023-10-02 13:23:00,SystemResetWarning,0830.0,5.00,000.00,027.4,026.0,000.0,036.0,029.1,20.2,0000.0,0004.60,0009.96,0003.71
2023-10-02 13:24:00,SystemResetWarning,0830.0,5.00,000.00,027.4,026.0,000.0,036.0,029.1,20.4,0000.0,0004.60,0010.22,0003.71
2023-10-02 13:25:00,SystemResetWarning,0830.0,5.01,000.00,027.4,026.0,000.0,036.0,029.1,20.6,0000.0,0004.63,0010.32,0003.70
2023-10-02 13:26:00,SystemResetWarning,0830.0,5.01,000.00,027.4,026.0,000.0,036.0,029.1,20.7,0000.0,0004.69,0011.03,0003.70
2023-10-02 13:27:00,SystemResetWarning,0830.0,5.01,000.00,027.4,026.0,000.0,036.0,029.1,20.9,0000.0,0004.67,0011.69,0003.70
2023-10-02 13:28:00,SystemResetWarning,0830.0,4.99,000.00,027.4,026.0,000.0,035.9,029.1,21.0,0000.0,0004.65,0011.59,0003.71
2023-10-02 13:29:00,SystemResetWarning,0829.9,5.00,000.00,027.4,026.0,000.0,035.9,029.1,21.1,0000.0,0004.63,0011.49,0003.72
2023-10-02 13:30:00,SystemResetWarning,0829.9,4.99,000.00,027.4,026.0,000.0,035.9,029.0,21.1,0000.0,0004.58,0011.22,0003.71
2023-10-02 13:31:00,SystemResetWarning,0829.9,5.00,000.00,027.4,026.0,000.0,035.9,029.0,21.3,0000.0,0004.56,0010.87,0003.71
2023-10-02 13:32:00,SystemResetWarning,0829.9,4.99,000.00,027.4,026.0,000.0,035.9,029.0,21.5,0000.0,0004.56,0010.55,0003.70
2023-10-02 13:33:00,SystemResetWarning,0829.8,5.00,000.00,027.4,026.0,000.0,035.9,029.1,21.6,0000.0,0004.53,0010.39,0003.71
2023-10-02 13:34:00,SystemResetWarning,0829.8,5.00,000.00,027.4,026.0,000.0,035.9,029.1,21.7,0000.0,0004.50,0010.19,0003.70
2023-10-02 13:35:00,SystemResetWarning,0829.9,5.00,000.00,027.4,026.0,000.0,035.9,029.1,21.8,0000.0,0004.52,0010.20,0003.70
2023-10-02 13:36:00,SystemResetWarning,0829.8,5.00,000.00,027.4,026.0,000.0,035.9,029.1,22.0,0000.0,0004.53,0010.21,0003.71
2023-10-02 13:37:00,SystemResetWarning,0829.8,5.01,000.00,027.4,026.0,000.0,035.9,029.1,22.0,0000.0,0004.45,0009.66,0003.70
2023-10-02 13:38:00,SystemResetWarning,0829.8,5.01,000.00,027.4,026.1,000.0,035.9,029.1,22.0,0000.0,0004.42,0008.51,0003.70
2023-10-02 13:39:00,SystemResetWarning,0829.8,5.00,000.00,027.4,026.1,000.0,035.9,029.1,22.0,0000.0,0004.43,0008.37,0003.69
2023-10-02 13:40:00,SystemResetWarning,0829.8,5.00,000.00,027.4,026.1,000.0,035.9,029.1,22.1,0000.0,0004.42,0008.31,0003.69
2023-10-02 13:41:00,SystemResetWarning,0829.8,5.00,000.00,027.4,026.1,000.0,035.9,029.1,22.2,0000.0,0004.45,0008.46,0003.69
2023-10-02 13:42:00,SystemResetWarning,0829.8,5.01,000.00,027.5,026.1,000.0,035.9,029.1,22.2,0000.0,0004.48,0008.52,0003.70
2023-10-02 13:43:00,SystemResetWarning,0829.7,5.00,000.00,027.5,026.1,000.0,035.9,029.2,22.0,0000.0,0004.46,0008.49,0003.69
2023-10-02 13:44:00,SystemResetWarning,0829.7,5.00,000.00,027.5,026.1,000.0,035.9,029.2,22.0,0000.0,0004.41,0008.37,0003.67
2023-10-02 13:45:00,SystemResetWarning,0829.7,5.00,000.00,027.5,026.1,000.0,035.9,029.2,22.0,0000.0,0004.40,0008.36,0003.65
2023-10-02 13:46:00,SystemResetWarning,0829.7,5.00,000.00,027.5,026.2,000.0,035.9,029.2,22.0,0000.0,0004.38,0008.41,0003.64
2023-10-02 13:47:00,SystemResetWarning,0829.7,5.00,000.00,027.5,026.2,000.0,035.9,029.2,22.1,0000.0,0004.33,0008.17,0003.64
2023-10-02 13:48:00,SystemResetWarning,0829.7,4.99,000.00,027.5,026.2,000.0,035.9,029.3,22.2,0000.0,0004.34,0008.31,0003.63
2023-10-02 13:49:00,SystemResetWarning,0829.7,5.00,000.00,027.6,026.3,000.0,036.0,029.3,22.2,0000.0,0004.39,0008.63,0003.64
2023-10-02 13:50:00,SystemResetWarning,0829.7,5.01,000.00,027.6,026.3,000.0,036.0,029.4,22.2,0000.0,0004.37,0008.75,0003.64
2023-10-02 13:51:00,SystemResetWarning,0829.7,5.01,000.00,027.6,026.3,000.0,036.0,029.4,22.1,0000.0,0004.38,0008.86,0003.64
2023-10-02 13:52:00,SystemResetWarning,0829.7,5.00,000.00,027.6,026.4,000.0,036.0,029.4,22.2,0000.0,0004.37,0008.79,0003.64
2023-10-02 13:53:00,SystemResetWarning,0829.7,4.99,000.00,027.6,026.4,000.0,036.0,029.4,22.2,0000.0,0004.36,0008.72,0003.63
2023-10-02 13:54:00,SystemResetWarning,0829.7,4.99,000.00,027.6,026.4,000.0,036.0,029.4,22.2,0000.0,0004.35,0008.83,0003.63
2023-10-02 13:55:00,SystemResetWarning,0829.7,5.00,000.00,027.7,026.4,000.0,036.0,029.4,22.2,0000.0,0004.41,0009.17,0003.64
2023-10-02 13:56:00,SystemResetWarning,0829.7,5.01,000.00,027.7,026.4,000.0,036.1,029.4,22.2,0000.0,0004.42,0009.20,0003.65
2023-10-02 13:57:00,SystemResetWarning,0829.7,5.01,000.00,027.7,026.5,000.0,036.1,029.4,22.1,0000.0,0004.43,0009.22,0003.66
2023-10-02 13:58:00,SystemResetWarning,0829.7,5.01,000.00,027.7,026.5,000.0,036.1,029.5,22.1,0000.0,0004.47,0009.50,0003.66
2023-10-02 13:59:00,SystemResetWarning,0829.7,4.99,000.00,027.7,026.5,000.0,036.1,029.5,22.0,0000.0,0004.48,0009.54,0003.66
